Regional Weather Roundup
Issued by NWS

Home | Current Version | Previous Version | Graphics & Text | Print | Product List | Glossary On
Versions: 1 2 3 4 5 6 7 8 9 10 11 12 13 14 15 16 17 18 19 20 21 22 23 24 25 26 27 28
000
ASUS45 KBOI 291410
RWRID
WEATHER ROUNDUP FOR IDAHO
NATIONAL WEATHER SERVICE BOISE ID
800 AM MDT WED OCT 29 2014

NOTE: "FAIR" INDICATES FEW OR NO CLOUDS BELOW 12000 FEET
WITH NO SIGNIFICANT WEATHER AND/OR OBSTRUCTIONS TO VISIBILITY

IDZ012-014-291500-
SOUTHWEST IDAHO


CITY           SKY/WX    TMP DP  RH WIND       PRES   REMARKS
BOISE          MOCLDY    44  35  70 N6        30.18R
CALDWELL       CLOUDY    45  34  65 MISG      30.21R
MOUNTAIN HOME  PTCLDY    40  26  56 E12       30.17S WCI  33
$$

IDZ016-017-291500-
SOUTHCENTRAL IDAHO


CITY           SKY/WX    TMP DP  RH WIND       PRES   REMARKS
BURLEY         CLOUDY    37  28  70 CALM      30.21S
JEROME         PTCLDY    40  23  50 E7        30.20S
TWIN FALLS     CLEAR     43  27  53 S8        30.20S
$$

IDZ019>023-291500-
SOUTHEAST IDAHO


CITY           SKY/WX    TMP DP  RH WIND       PRES   REMARKS
IDAHO FALLS    MOCLDY    32  25  75 CALM      30.23F
POCATELLO      MOCLDY    37  25  61 CALM      30.24R
REXBURG        PTCLDY    29  22  75 E5        30.23S WCI  24
$$

IDZ006-010-011-018-031-032-291500-
CENTRAL IDAHO MOUNTAINS


CITY           SKY/WX    TMP DP  RH WIND       PRES   REMARKS
MCCALL         MOCLDY    37  35  92 CALM      30.17R
HAILEY         MOCLDY    36  27  69 NW6       30.24R WCI  31
STANLEY          N/A     37  33  85 NW3       30.22R
SALMON         CLOUDY    36  30  80 SW9       30.17R WCI  29
CHALLIS        CLOUDY    37  33  85 SW3       30.18R
$$

IDZ002-004-006-007-026-291500-
NORTHERN IDAHO


CITY           SKY/WX    TMP DP  RH WIND       PRES   REMARKS
LEWISTON       MOCLDY    46  45  96 N5        30.12R
LOWELL           N/A     46  45  96 CALM      30.18R
COEUR D`ALENE  CLOUDY    46  43  87 CALM      30.08R
MULLAN PASS    CLOUDY    35  35 100 W9        30.08R WCI  28
$$



USA.gov is the U.S. government's official web portal to all federal, state and local government web resources and services.